This is the latest recevied weather packets stored in our database for station/object NE1CU. If no packets are shown the sender has not sent any weather packets the latest 10 day(s).
| Time | Temp. | Humidity | Pressure | Rain* | Wind** | Luminosity | Snow |
|---|---|---|---|---|---|---|---|
| 1777995032 | 22.78° C | 53% | 1011 hPa | 0 mm | - | 871 W/m² | - |
| 1777994729 | 22.78° C | 55% | 1011 hPa | 0 mm | - | 864 W/m² | - |
| 1777994425 | 22.78° C | 56% | 1011.1 hPa | 0 mm | - | 854 W/m² | - |
| 1777994120 | 22.22° C | 57% | 1011.3 hPa | 0 mm | - | 850 W/m² | - |
| 1777993818 | 22.22° C | 56% | 1011.3 hPa | 0 mm | - | 835 W/m² | - |
| 1777993514 | 22.22° C | 55% | 1011.3 hPa | 0 mm | - | 825 W/m² | - |
| 1777993210 | 21.67° C | 55% | 1011.4 hPa | 0 mm | - | 817 W/m² | - |
| 1777992906 | 21.67° C | 55% | 1011 hPa | 0 mm | - | 806 W/m² | - |
| 1777992605 | 21.67° C | 57% | 1011.1 hPa | 0 mm | - | 797 W/m² | - |
| 1777992302 | 21.11° C | 56% | 1011 hPa | 0 mm | - | 784 W/m² | - |
| 1777991999 | 21.11° C | 57% | 1011.2 hPa | 0 mm | - | 772 W/m² | - |
| 1777991697 | 21.11° C | 58% | 1011.4 hPa | 0 mm | - | 764 W/m² | - |
| 1777991394 | 20.56° C | 58% | 1011.1 hPa | 0 mm | - | 749 W/m² | - |
| 1777991091 | 20° C | 60% | 1011.1 hPa | 0 mm | - | 738 W/m² | - |
| 1777990788 | 20.56° C | 58% | 1011 hPa | 0 mm | - | 726 W/m² | - |
| 1777990485 | 20° C | 60% | 1010.9 hPa | 0 mm | - | 711 W/m² | - |
| 1777989879 | 20.56° C | 62% | 1010.9 hPa | 0 mm | - | 681 W/m² | - |
| 1777989575 | 20° C | 62% | 1010.9 hPa | 0 mm | - | 664 W/m² | - |
| 1777989272 | 19.44° C | 61% | 1011 hPa | 0 mm | - | 645 W/m² | - |
| 1777988969 | 19.44° C | 62% | 1011 hPa | 0 mm | - | 632 W/m² | - |
| 1777988665 | 18.89° C | 64% | 1011.1 hPa | 0 mm | - | 610 W/m² | - |
| 1777988361 | 18.89° C | 65% | 1011 hPa | 0 mm | - | 600 W/m² | - |
| 1777988059 | 18.33° C | 66% | 1011.3 hPa | 0 mm | - | 579 W/m² | - |
| 1777987754 | 18.33° C | 66% | 1011 hPa | 0 mm | - | 563 W/m² | - |
| 1777987452 | 17.78° C | 70% | 1011 hPa | 0 mm | - | 548 W/m² | - |
* Rain latest hour (hover to see other rain measurements)
** Current wind speed in m/s (hover to see current wind gust speed)